WA9NNN-10 Weather Reports


Display with metric or nautical units.
time (UTC)temp
F
wind
direction
speed
MPH
gust
MPH
rain 1hr
in
rain 24hr
in
rain mn
in
humidity
%
barometer
mb
20260502170137 53 36 3.0 4.0 0.00 0.00 0.00 38 1019.3
20260502164137 54 11 4.0 4.0 0.00 0.00 0.00 38 1019.3
20260502163637 54 39 5.0 3.0 0.00 0.00 0.00 38 1019.4
20260502163137 53 289 1.0 4.0 0.00 0.00 0.00 37 1019.5
20260502162636 53 359 8.0 3.0 0.00 0.00 0.00 38 1019.6
20260502162137 53 352 5.0 3.0 0.00 0.00 0.00 40 1019.7
20260502161636 52 67 5.0 3.0 0.00 0.00 0.00 39 1019.6
20260502161137 52 7 4.0 3.0 0.00 0.00 0.00 40 1019.7
20260502160637 51 288 5.0 3.0 0.00 0.00 0.00 41 1019.7
20260502160137 51 337 2.0 4.0 0.00 0.00 0.00 41 1019.7
20260502152137 52 268 6.0 4.0 0.00 0.00 0.00 42 1019.8
20260502151636 52 116 2.0 3.0 0.00 0.00 0.00 42 1019.7
20260502151137 52 18 4.0 2.0 0.00 0.00 0.00 43 1019.8
20260502150637 51 340 3.0 3.0 0.00 0.00 0.00 43 1019.7
20260502150137 50 0 0.0 3.0 0.00 0.00 0.00 44 1019.7
20260502130636 41 316 3.0 2.0 0.00 0.00 0.00 78 1019.7
20260502130137 41 333 2.0 2.0 0.00 0.00 0.00 79 1019.7
20260502123636 39 263 1.0 1.0 0.00 0.00 0.00 83 1019.7
20260502123136 39 280 1.0 1.0 0.00 0.00 0.00 84 1019.7
20260502122636 38 0 0.0 0.0 0.00 0.00 0.00 84 1019.7
20260502122137 38 0 0.0 0.0 0.00 0.00 0.00 84 1019.7
20260502121636 38 0 0.0 0.0 0.00 0.00 0.00 84 1019.7
20260502121136 38 0 0.0 0.0 0.00 0.00 0.00 85 1019.7
20260502120636 37 0 0.0 0.0 0.00 0.00 0.00 85 1019.6
20260502120136 37 0 0.0 1.0 0.00 0.00 0.00 85 1019.5
20260502115636 37 0 0.0 0.0 0.00 0.00 0.00 85 1019.5
20260502115136 36 0 0.0 0.0 0.00 0.00 0.00 85 1019.5
20260502114636 36 0 0.0 0.0 0.00 0.00 0.00 85 1019.5
20260502114137 35 349 1.0 0.0 0.00 0.00 0.00 85 1019.4
20260502113636 35 335 1.0 0.0 0.00 0.00 0.00 85 1019.3
20260502113136 34 0 0.0 0.0 0.00 0.00 0.00 85 1019.3
20260502112636 34 0 0.0 0.0 0.00 0.00 0.00 84 1019.3
20260502112136 34 0 0.0 0.0 0.00 0.00 0.00 84 1019.3
20260502111636 33 0 0.0 0.0 0.00 0.00 0.00 84 1019.2
20260502111137 33 0 0.0 0.0 0.00 0.00 0.00 84 1019.2
20260502110636 33 0 0.0 0.0 0.00 0.00 0.00 84 1019.2
20260502110136 33 0 0.0 0.0 0.00 0.00 0.00 83 1019.2
20260502105636 33 0 0.0 0.0 0.00 0.00 0.00 83 1019.2
20260502105136 33 0 0.0 0.0 0.00 0.00 0.00 83 1019.1
20260502104636 33 0 0.0 0.0 0.00 0.00 0.00 83 1019.1
20260502104137 33 0 0.0 0.0 0.00 0.00 0.00 83 1019.1
20260502103636 33 0 0.0 0.0 0.00 0.00 0.00 83 1019.1
20260502103137 33 0 0.0 0.0 0.00 0.00 0.00 83 1019.1
20260502102636 33 0 0.0 0.0 0.00 0.00 0.00 82 1019.1
20260502102137 33 0 0.0 0.0 0.00 0.00 0.00 82 1019.0
20260502101636 33 0 0.0 0.0 0.00 0.00 0.00 82 1019.1
20260502101137 33 0 0.0 0.0 0.00 0.00 0.00 82 1019.1
20260502100636 33 0 0.0 0.0 0.00 0.00 0.00 82 1019.0
20260502100137 33 0 0.0 0.0 0.00 0.00 0.00 82 1019.0
20260502091136 33 0 0.0 0.0 0.00 0.00 0.00 80 1019.0
20260502090637 33 0 0.0 0.0 0.00 0.00 0.00 80 1019.0
20260502090136 33 0 0.0 0.0 0.00 0.00 0.00 79 1019.0
20260502071137 35 0 0.0 0.0 0.00 0.00 0.00 76 1019.1
20260502070637 35 0 0.0 0.0 0.00 0.00 0.00 76 1019.2
20260502070137 35 0 0.0 0.0 0.00 0.00 0.00 76 1019.2
20260502065637 35 0 0.0 0.0 0.00 0.00 0.00 76 1019.2
20260502065138 35 0 0.0 0.0 0.00 0.00 0.00 75 1019.3
20260502064637 35 0 0.0 0.0 0.00 0.00 0.00 75 1019.3
20260502064137 35 0 0.0 0.0 0.00 0.00 0.00 74 1019.3
20260502063637 35 0 0.0 0.0 0.00 0.00 0.00 74 1019.4
20260502063137 35 0 0.0 0.0 0.00 0.00 0.00 73 1019.4
20260502062637 35 0 0.0 0.0 0.00 0.00 0.00 73 1019.5
20260502062137 36 0 0.0 0.0 0.00 0.00 0.00 73 1019.5
20260502061638 36 0 0.0 0.0 0.00 0.00 0.00 72 1019.5
20260502061137 36 0 0.0 0.0 0.00 0.00 0.00 72 1019.5
20260502060637 36 0 0.0 0.0 0.00 0.00 0.00 72 1019.4
20260502060137 36 0 0.0 0.0 0.00 0.00 0.00 71 1019.6
20260502055637 36 0 0.0 0.0 0.00 0.03 0.00 71 1019.6
20260502055137 36 0 0.0 0.0 0.00 0.03 0.00 71 1019.5
20260502054636 36 0 0.0 0.0 0.00 0.03 0.00 71 1019.6
20260502054137 36 0 0.0 0.0 0.00 0.03 0.00 71 1019.6
20260502053637 36 0 0.0 0.0 0.00 0.03 0.00 71 1019.5
20260502053137 36 0 0.0 0.0 0.00 0.03 0.00 70 1019.6
20260502052637 36 0 0.0 0.0 0.00 0.03 0.00 70 1019.5
20260502052138 37 0 0.0 0.0 0.00 0.03 0.00 70 1019.5
20260502051636 37 0 0.0 0.0 0.00 0.03 0.00 70 1019.5
20260502051138 37 0 0.0 0.0 0.00 0.03 0.00 70 1019.6
20260502050637 37 0 0.0 0.0 0.00 0.03 0.00 70 1019.6
20260502050137 37 0 0.0 0.0 0.00 0.03 0.00 69 1019.5
20260502045637 37 0 0.0 0.0 0.00 0.03 0.03 69 1019.6
20260502045138 37 0 0.0 0.0 0.00 0.03 0.03 69 1019.6
20260502044637 37 0 0.0 0.0 0.00 0.03 0.03 68 1019.7
20260502044137 37 94 1.0 0.0 0.00 0.03 0.03 68 1019.6
20260502043637 37 0 0.0 0.0 0.00 0.03 0.03 68 1019.6
20260502043137 37 0 0.0 0.0 0.00 0.03 0.03 67 1019.6
20260502042636 37 0 0.0 0.0 0.00 0.03 0.03 67 1019.5
20260502042137 37 0 0.0 0.0 0.00 0.03 0.03 67 1019.5
20260502041636 38 0 0.0 0.0 0.00 0.03 0.03 67 1019.4
20260502041137 38 0 0.0 0.0 0.00 0.03 0.03 66 1019.5
20260502040637 38 0 0.0 0.0 0.00 0.03 0.03 66 1019.4
20260502040137 38 0 0.0 0.0 0.00 0.03 0.03 66 1019.4
20260502035637 38 0 0.0 0.0 0.00 0.04 0.03 65 1019.4
20260502035138 38 0 0.0 0.0 0.00 0.04 0.03 65 1019.4
20260502034637 38 0 0.0 0.0 0.00 0.04 0.03 65 1019.3
20260502034137 39 0 0.0 0.0 0.00 0.04 0.03 65 1019.3
20260502033636 39 0 0.0 0.0 0.00 0.04 0.03 65 1019.3
20260502033137 39 0 0.0 0.0 0.00 0.04 0.03 65 1019.3
20260502032637 40 0 0.0 0.0 0.00 0.04 0.03 65 1019.3
20260502032137 40 0 0.0 0.0 0.00 0.04 0.03 65 1019.2
20260502031637 40 0 0.0 0.0 0.00 0.04 0.03 64 1019.3
20260502031137 40 0 0.0 2.0 0.00 0.04 0.03 64 1019.3
20260502030636 40 66 1.0 2.0 0.00 0.04 0.03 64 1019.2
20260502030137 40 72 2.0 1.0 0.00 0.04 0.03 64 1019.2
20260502025636 40 77 1.0 1.0 0.00 0.08 0.03 64 1019.1
20260502025137 40 68 1.0 1.0 0.00 0.08 0.03 64 1019.1
20260502024636 40 0 0.0 1.0 0.00 0.08 0.03 64 1019.1
20260502024137 40 74 1.0 2.0 0.00 0.08 0.03 64 1019.1
20260502023636 40 64 1.0 2.0 0.00 0.08 0.03 63 1019.0
20260502023139 40 70 2.0 2.0 0.00 0.08 0.03 63 1018.9
20260502022637 41 72 1.0 2.0 0.00 0.08 0.03 63 1018.9
20260502022138 41 70 2.0 2.0 0.00 0.08 0.03 63 1018.9
20260502021636 41 67 2.0 3.0 0.00 0.08 0.03 63 1018.9
20260502021137 41 60 3.0 3.0 0.00 0.08 0.03 63 1018.8
20260502020636 41 19 2.0 3.0 0.00 0.08 0.03 62 1018.8
20260502020137 41 50 5.0 4.0 0.00 0.08 0.03 63 1018.7
20260502015637 41 63 3.0 4.0 0.00 0.08 0.03 62 1018.8
20260502015137 41 23 2.0 3.0 0.00 0.08 0.03 63 1018.7
20260502014636 41 56 2.0 3.0 0.00 0.08 0.03 63 1018.8
20260502014137 41 76 3.0 4.0 0.00 0.08 0.03 63 1018.7
20260502013636 41 44 3.0 4.0 0.00 0.08 0.03 63 1018.7
20260502013137 41 70 6.0 4.0 0.00 0.08 0.03 63 1018.6
20260502012637 41 30 3.0 4.0 0.00 0.08 0.03 63 1018.6
20260502012137 41 42 6.0 4.0 0.00 0.08 0.03 63 1018.6
20260502011638 41 31 3.0 3.0 0.00 0.08 0.03 63 1018.6
20260502011137 41 63 6.0 2.0 0.00 0.08 0.03 63 1018.5
20260502010636 41 53 1.0 3.0 0.00 0.08 0.03 64 1018.5
20260502010137 41 44 2.0 3.0 0.00 0.08 0.03 64 1018.4
20260502005637 41 46 3.0 3.0 0.00 0.08 0.03 66 1018.5
20260502005137 41 52 3.0 3.0 0.00 0.08 0.03 66 1018.5
20260502004636 41 50 2.0 3.0 0.00 0.08 0.03 66 1018.5
20260502004137 41 351 3.0 4.0 0.00 0.08 0.03 65 1018.5
20260502003636 42 79 2.0 3.0 0.00 0.08 0.03 65 1018.5
20260502003137 42 21 3.0 4.0 0.00 0.08 0.03 64 1018.4
20260502002636 42 37 2.0 4.0 0.00 0.08 0.03 63 1018.4
20260502002137 42 62 4.0 5.0 0.00 0.08 0.03 63 1018.3
20260502001636 42 358 3.0 5.0 0.00 0.08 0.03 62 1018.4
20260502001138 42 58 8.0 5.0 0.00 0.08 0.03 62 1018.1
20260502000636 42 86 5.0 6.0 0.00 0.08 0.03 62 1018.0
20260502000137 42 338 4.0 5.0 0.00 0.08 0.03 63 1018.1
20260501235636 42 63 4.0 4.0 0.00 0.08 0.03 64 1018.2
20260501235137 42 70 4.0 5.0 0.00 0.08 0.03 65 1018.1
20260501234636 42 53 6.0 5.0 0.00 0.08 0.03 65 1018.1
20260501234137 42 32 3.0 5.0 0.00 0.08 0.03 65 1018.0
20260501233637 43 65 7.0 6.0 0.00 0.08 0.03 66 1018.0
20260501233137 43 359 2.0 5.0 0.00 0.08 0.03 66 1017.9
20260501232636 43 56 5.0 4.0 0.00 0.08 0.03 66 1018.0
20260501232137 43 349 5.0 4.0 0.00 0.08 0.03 65 1018.0
20260501231636 43 338 4.0 5.0 0.00 0.08 0.03 65 1018.1
20260501231137 43 40 4.0 4.0 0.00 0.08 0.03 64 1018.1
20260501230636 43 88 4.0 3.0 0.00 0.08 0.03 64 1017.9
20260501230137 43 37 3.0 3.0 0.00 0.08 0.03 65 1018.0
20260501225636 43 49 2.0 4.0 0.00 0.08 0.03 65 1018.0
20260501225137 43 11 3.0 5.0 0.00 0.08 0.03 65 1018.1
20260501224636 43 59 8.0 5.0 0.00 0.08 0.03 64 1018.1
20260501224137 43 65 3.0 5.0 0.00 0.08 0.03 64 1018.1
20260501223636 43 85 4.0 4.0 0.00 0.08 0.03 65 1018.1
20260501223136 44 80 1.0 4.0 0.00 0.08 0.03 66 1018.0
20260501222636 44 56 4.0 3.0 0.00 0.08 0.03 65 1018.0
20260501222137 44 4 5.0 4.0 0.00 0.08 0.03 66 1018.0
20260501221636 44 360 1.0 4.0 0.00 0.08 0.03 66 1018.0
20260501221137 44 75 7.0 4.0 0.00 0.08 0.03 66 1018.0
20260501220637 44 41 2.0 3.0 0.00 0.08 0.03 65 1018.0
20260501220137 44 40 3.0 4.0 0.00 0.08 0.03 66 1018.0
20260501215638 44 16 2.0 6.0 0.00 0.08 0.03 65 1018.0
20260501215136 44 34 5.0 6.0 0.00 0.08 0.03 64 1018.0
20260501214636 45 78 8.0 5.0 0.00 0.08 0.03 65 1017.9
20260501214136 45 59 6.0 4.0 0.00 0.08 0.03 65 1017.9
20260501213636 45 82 6.0 4.0 0.00 0.08 0.03 67 1017.9
20260501213137 45 60 3.0 5.0 0.00 0.08 0.03 66 1017.8
20260501212636 44 83 5.0 4.0 0.00 0.08 0.03 67 1017.8
20260501212137 44 51 3.0 5.0 0.00 0.08 0.03 67 1017.8
20260501211636 45 32 3.0 5.0 0.00 0.08 0.03 67 1017.7
20260501211137 45 56 6.0 5.0 0.00 0.08 0.03 67 1017.7
20260501210636 45 52 9.0 5.0 0.00 0.08 0.03 69 1017.7
20260501210137 45 73 5.0 4.0 0.00 0.08 0.03 70 1017.7
20260501205637 45 59 7.0 4.0 0.00 0.08 0.03 70 1017.7
20260501205137 45 80 11.0 4.0 0.00 0.08 0.03 71 1017.8
20260501204636 45 67 6.0 4.0 0.00 0.08 0.03 71 1017.8
20260501204136 44 78 2.0 4.0 0.00 0.08 0.03 71 1017.7
20260501203636 44 29 4.0 4.0 0.00 0.08 0.03 71 1017.8
20260501203136 44 37 4.0 4.0 0.00 0.08 0.03 71 1017.7
20260501202636 44 0 0.0 5.0 0.00 0.08 0.03 71 1017.7
20260501202137 44 360 3.0 5.0 0.00 0.08 0.03 70 1017.7
20260501201636 45 1 4.0 5.0 0.00 0.08 0.03 70 1017.8
20260501201138 45 75 8.0 5.0 0.00 0.08 0.03 70 1017.7
20260501200636 45 20 4.0 5.0 0.00 0.08 0.03 70 1017.7
20260501200136 46 1 7.0 5.0 0.00 0.08 0.03 69 1017.7
20260501195636 46 89 5.0 5.0 0.00 0.08 0.03 69 1017.7
20260501195137 46 53 6.0 5.0 0.00 0.08 0.03 70 1017.6
20260501194636 45 77 5.0 6.0 0.00 0.08 0.03 70 1017.5
20260501194137 45 65 7.0 6.0 0.00 0.08 0.03 70 1017.6
20260501193636 45 69 7.0 6.0 0.00 0.08 0.03 70 1017.6
20260501193136 45 70 4.0 6.0 0.00 0.08 0.03 71 1017.6
20260501192636 44 59 7.0 5.0 0.00 0.08 0.03 71 1017.5
20260501192136 44 81 5.0 5.0 0.00 0.08 0.03 70 1017.6
20260501191637 44 75 4.0 6.0 0.00 0.08 0.03 69 1017.5
20260501191136 45 26 4.0 6.0 0.00 0.08 0.03 69 1017.5
20260501190636 45 74 8.0 5.0 0.00 0.08 0.03 68 1017.4
20260501190136 45 28 3.0 4.0 0.00 0.08 0.03 67 1017.3
20260501185637 46 32 1.0 5.0 0.00 0.08 0.03 67 1017.2
20260501185136 45 62 4.0 5.0 0.00 0.08 0.03 68 1017.1
20260501184636 45 75 6.0 5.0 0.00 0.08 0.03 68 1017.2
20260501184136 45 43 4.0 6.0 0.00 0.08 0.03 68 1017.1
20260501183636 45 84 6.0 5.0 0.00 0.08 0.03 69 1017.2
20260501183136 45 84 4.0 5.0 0.00 0.08 0.03 70 1017.1
20260501182636 45 8 4.0 5.0 0.00 0.08 0.03 70 1017.1
20260501182136 45 38 10.0 4.0 0.00 0.08 0.03 70 1017.0
20260501181636 46 6 5.0 4.0 0.00 0.08 0.03 70 1017.0
20260501181137 46 84 3.0 5.0 0.00 0.08 0.03 70 1016.9
20260501180636 46 81 8.0 5.0 0.00 0.08 0.03 69 1016.9
20260501180137 46 84 9.0 5.0 0.00 0.08 0.03 69 1016.8